Regional Weather Roundup
Issued by NWS Upton, NY

Current Version | Previous Version | Graphics & Text | Print | Product List | Glossary Off
Versions: 1 2 3 4 5 6 7 8 9 10 11 12 13 14 15 16 17 18 19 20 21 22 23 24 25 26 27 28 29 30 31 32 33 34 35 36 37 38 39 40 41 42 43 44 45 46 47 48 49 50

752
ASUS41 KOKX 281109
RWROKX

REGIONAL WEATHER ROUNDUP
NATIONAL WEATHER SERVICE NEW YORK NY
700 AM EDT FRI APR 28 2017

NOTE: "FAIR" INDICATES FEW OR NO CLOUDS BELOW 12,000 FEET WITH NO
SIGNIFICANT WEATHER AND/OR OBSTRUCTIONS TO VISIBILITY.

NYZ071-072-176-178-NJZ106-104-281200-
NEW YORK CITY METRO AREA

CITY           SKY/WX    TMP DP  RH WIND       PRES   REMARKS
Central Park   CLOUDY    58  58 100 NE6       29.95R FOG
Wall St Helipt CLOUDY    55  55 100 CALM      29.93F VSB 3/4
Bronx Bot Gard   N/A     57  55  94 NE1       29.96R
LaGuardia APRT FOG       56  55  97 NE8       29.92R VSB 1
Kennedy INTL   CLOUDY    57  57 100 N5        29.92S FOG
Breezy Point     N/A     54 N/A N/A N3          N/A
Newark/Liberty FOG       59  58  96 N5        29.92R VSB 1/2
Teterboro      CLOUDY    60  59  96 VRB3      29.92R FOG
$$

NYZ177-179-078>081-281200-
LONG ISLAND NEW YORK

CITY           SKY/WX    TMP DP  RH WIND       PRES   REMARKS
Jones Beach      N/A     54 N/A N/A NE2         N/A
Matinecock PT  NOT AVBL
Farmingdale    LGT RAIN  56  55  97 NE5       29.91S FOG
MacArthur/ISP  LGT RAIN  56  56 100 CALM      29.92S FOG
Shirley        LGT RAIN  55  54  96 SW3       29.95R FOG
Mt Sinai Harb    N/A    N/A N/A N/A MISG        N/A
Westhampton    CLOUDY    55  53  93 SW7       29.96R FOG
East Hampton   PTSUNNY   54  53  97 CALM      29.94S FOG
Montauk          N/A     55  55 100 CALM      29.96R
$$

NYZ052-065-067-281200-
HUDSON VALLEY

CITY           SKY/WX    TMP DP  RH WIND       PRES   REMARKS
White Plains   FOG       58  57  97 E3        29.93R VSB 1/2
Larchmont Harb   N/A     52 N/A N/A NE7         N/A
Croton O-T Hud   N/A     57 N/A N/A MISG        N/A
Newburgh       NOT AVBL
Montgomery     CLOUDY    61  58  90 CALM      29.92R
Poughkeepsie   CLOUDY    60  58  92 CALM      29.93R FOG
Albany         CLOUDY    61  57  87 S9        29.92R
$$

NJZ001-105-106-008-010-013-015-019>022-104-281200-
NEW JERSEY

CITY           SKY/WX    TMP DP  RH WIND       PRES   REMARKS
Newark/Liberty FOG       59  58  96 N5        29.92R VSB 1/2
Teterboro      CLOUDY    60  59  96 VRB3      29.92R FOG
Caldwell       FOG       59  58  96 CALM      29.93R VSB 3/4
Somerville     FOG       59  59 100 CALM      29.92R VSB 1/4
Linden         CLOUDY    58  58  98 CALM      29.94R FOG
Perth Amboy      N/A     55 N/A N/A S3          N/A
Sussex         CLOUDY    60  59  96 CALM      29.94R FOG
Andover          N/A     57  57 100 CALM      29.94R
Trenton        PTCLDY    59  59 100 CALM      29.94R FOG
Millville      CLEAR     65  64  97 SW3       29.94R
Atlantic City  MOCLDY    63  59  87 S5        29.94R
Wrightstown    PTCLDY    63  61  94 S7        29.92R
Toms River     MOSUNNY   63  61  93 W6        29.95R
Belmar         PTSUNNY   62  61  96 SW6       29.95R
$$

PAZ047>061-062-071-281200-
EASTERN PENNSYLVANIA

CITY           SKY/WX    TMP DP  RH WIND       PRES   REMARKS
Philadelphia   PTCLDY    65  62  90 SW6       29.94R
Allentown      CLEAR     58  56  93 CALM      29.94R FOG
Scranton       MOCLDY    65  61  87 SW6       29.93R
$$

CTZ002-004>006-009-010-012-RIZ004-006-007-MAZ004-011-015-281200-
SOUTHERN NEW ENGLAND
 IN CT

CITY           SKY/WX    TMP DP  RH WIND       PRES   REMARKS
Bradley INTL   FOG       59  59 100 S5        29.94R VSB 1/4
Hartford       CLOUDY    58  58 100 S6        29.94R FOG
Danbury        CLOUDY    56  56 100 CALM      29.94R FOG
Wtrbury/Oxford FOG       55  52  88 CALM      29.97R VSB 1/16
Bridgeport     FOG       55  53  93 E3        29.95R VSB<1/4
Meriden        FOG       58  57  97 S6        29.95R VSB 1/2
New Haven      FOG       54  53  97 CALM      29.94R VSB 1/4
Chester        FOG       55  55 100 MISG      29.95R VSB<1/4
Groton         CLOUDY    54  54 100 CALM      29.94S FOG
Wilimantic     CLOUDY    59  58  96 S7        29.96R FOG

 IN RI

CITY           SKY/WX    TMP DP  RH WIND       PRES   REMARKS
Providence     LGT RAIN  54  54 100 S9        29.97R VSB 1/4
Block Island   CLOUDY    54  53  97 SW13      29.95S FOG
Westerly       FOG       53  53 100 S3        29.96R VSB 1/4
 IN MA

CITY           SKY/WX    TMP DP  RH WIND       PRES   REMARKS
Boston         FOG       57  57 100 SE5       29.94R VSB 1/4
Worcester      LGT RAIN  56  55  97 S3        29.94R VSB<1/4
Westfield      FOG       58  58 100 CALM      29.93R VSB 1/4
Provincetown   LGT RAIN  56  55  97 S10       29.96R VSB 1/4
Nantucket      FOG       54  53  97 S10       29.99R VSB 1/4
$$

ANZ330-335-338-340-345-350-353-355-281200-
COASTAL MARINE OBSERVATIONS


STATION/POSITION TIME  SKY/WX   TEMP    WIND        PRES    VSBY  WAVE
                                AIR SEA DIR/SP/G                  HT/PER
                 (UTC)          (F)     (DEG/KT/KT) (MB)    (MI)  (FT/S)
NY HARB ENTRANCE 0950            52 49  230/  6/  6 1013.1          4/ 9
20 S FIRE ISLAND 1050            52 47  180/  8/ 12 1012.8          5/ 8
GREAT SOUTH BAY  1015            55 57  220/  6/  8   N/A
23 SSW MONTAUK P 0950            50 46              1013.7          5/ 8
15 E BARNEGAT LI 1030               51                N/A           4/ 8
HUDSON CANYON    0950            54 49  200/ 12/ 14 1013.9          6/ 9
KINGS POINT      1048            54 50   60/  2/  3 1013.4
EXECUTION ROCKS  NOT AVBL
CENTRAL LI SOUND 1045            53     180/  2/  6   N/A           0
EASTERN LI SOUND NOT AVBL
ROBBINS REEF     1048            57     350/  2/  3 1013.4
$$


>>>>>>>>>>>>>>>>>>>>>>>>>>>> KEY <<<<<<<<<<<<<<<<<<<<<<<<<<<
>                                                          <
>     SKY/WX - Sky Condition/Present Weather               <
>     TMP    - Temperature in Fahrenheit                   <
>     DP     - Dew Point in Fahrenheit                     <
>     RH     - Relative Humidity in Percent                <
>     WIND   - Direction (from) and Speed in MPH           <
>     PRES   - Mean Sea Level Pressure (inches of Hg)      <
>     WCI    - Wind Chill Index                            <
>     VSB    - VISIBILITY IN MILES                         <
>     HX     - HEAT INDEX                                  <
>     TC     - TEMPERATURE IN CELSIUS                      <
>     VRB    - VARIABLE WIND DIRECTION                     <
>                                                          <
>>>>>>>>>>>>>>>>>>>>>>>>>>>> KEY <<<<<<<<<<<<<<<<<<<<<<<<<<<




USA.gov is the U.S. government's official web portal to all federal, state and local government web resources and services.